Location: Grange Rosano
(44.4500°N, 6.9667°E)
Time: 16:35:09
(UTC+00:00)

ADEOS II - Pass Details

Date: 10 October 2022
Orbit: 799 x 799 km, 98.6° (Epoch: 30 November)

Event Time Altitude Azimuth Distance (km) Brightness Sun altitude
Rises 02:04:08 0° 10° (N) 3,319 5.8 -37.9°
Reaches altitude 10° 02:06:29 10° 8° (N) 2,385 4.9 -37.5°
Enters shadow 02:07:34 16° 5° (N) 1,971 4.4 -37.4°
